Regional Weather Roundup
Issued by NWS Kansas City/Pleasant Hill, MO

Home | Current Version | Previous Version | Graphics & Text | Print | Product List | Glossary Off
Versions: 1 2 3 4 5 6 7 8 9 10 11 12 13 14 15 16 17 18 19 20 21 22 23 24 25 26 27

000
ASUS43 KEAX 281710
RWREAX

WEATHER ROUNDUP FOR EASTERN KANSAS AND NORTHWEST MISSOURI
NATIONAL WEATHER SERVICE KANSAS CITY/PLEASANT HILL MO
1200 PM CDT WED JUN 28 2017

KSZ040-057-103>105-MOZ028-029-037-043-281800-
...KANSAS CITY METROPOLITAN AREA...

CITY           SKY/WX    TMP DP  RH WIND       PRES   REMARKS
K.C. INTL      PTSUNNY   83  71  67 SW21G29   29.80F
K.C. DOWNTOWN  MOSUNNY   86  71  60 SW14G24   29.80S HX  91
LEES SUMMIT    CLOUDY    83  70  64 SW23G32   29.83S
OLATHE - IXD   SUNNY     83  70  64 S25G35    29.82S
OLATHE - OJC   MOSUNNY   82  71  69 S23G32    29.82F
LAWRENCE       MOSUNNY   84  71  65 S17G29    29.80R

$$

MOZ001>008-011>017-020>025-030>033-038>040-044>046-053-054-281800-
...NORTHERN AND CENTRAL MISSOURI...

CITY           SKY/WX    TMP DP  RH WIND       PRES   REMARKS
ST. JOSEPH     PTSUNNY   81  72  74 SW17G30   29.76F
MOSBY          PTSUNNY   81  68  65 S13G22    29.81F
WARRENSBURG    SUNNY     81  66  61 S17G30    29.83F
WHITEMAN AFB   MOSUNNY   82  73  73 SW28G37   29.84F
CLINTON        MOSUNNY   82  70  65 S17G25    29.89F
SEDALIA        SUNNY     82  71  69 S20G30    29.89F
WARSAW         NOT AVBL
CHILLICOTHE      N/A     81  70  69 S13G23    29.81R
KIRKSVILLE     CLOUDY    79  67  66 S21G35    29.85R

$$

MOZ041-047>049-056>058-063>065-088>090-097-281800-
...EASTERN AND SOUTHERN MISSOURI...

CITY           SKY/WX    TMP DP  RH WIND       PRES   REMARKS
ST. LOUIS INTL PTSUNNY   82  64  54 S13G25    29.99F
SPIRIT OF STL  CLOUDY    80  65  59 S10G20    29.97F
COLUMBIA       CLOUDY    79  68  69 S17       29.92F
JEFFERSON CITY PTSUNNY   80  66  62 S10       29.92F
ROLLA          CLOUDY    80  65  59 S21G29    29.98F
OSAGE BEACH    PTSUNNY   81  67  62 S16G25    29.95F
SPRINGFIELD    MOSUNNY   80  67  64 S21       29.97F
BRANSON        PTSUNNY   82  64  54 S8        30.04R
JOPLIN         SUNNY     84  72  67 S24G33    29.92F
WEST PLAINS    MOSUNNY   79  64  60 S9        30.06F

$$

IAZ060-094-KSZ022-034>040-054-083-096-NEZ052-066-093-281800-
...KANSAS...SOUTHEAST NEBRASKA AND IOWA...

CITY           SKY/WX    TMP DP  RH WIND       PRES   REMARKS
TOPEKA         MOSUNNY   83  72  69 S17G24    29.78F
MANHATTAN      MOSUNNY   90  69  50 SW29G38   29.73F HX  94
EMPORIA        MOSUNNY   84  70  62 S28G40    29.80S
CHANUTE          N/A    N/A N/A N/A MISG      29.86F
WICHITA        MOSUNNY   86  69  56 S25G35    29.80F HX  90
OMAHA          MOSUNNY   82  69  64 SW16G23   29.68F
LINCOLN        MOSUNNY   84  68  58 SW17G26   29.70F
FALLS CITY     MOSUNNY   82  71  69 S16G31    29.73F
LAMONI         CLOUDY    76  69  79 S13G24    29.78S
DES MOINES     CLOUDY    81  68  64 SW24G33   29.70F

$$





USA.gov is the U.S. government's official web portal to all federal, state and local government web resources and services.